Vorticity
13 12 10 10 12 11 11 11 1 5 5 11 9 10 11 6 7 7 7 7 8 7 5 5 8 9 8 7 8 -2 -12 -14 -1 16 21 21 14 8 6 5 13 12 13 9 6 7 9
10 10 10 10 8 9 13 14 15 7 -4 7 11 9 12 7 8 6 7 6 7 7 5 5 6 7 8 8 7 7 7 8 7 1 2 6 8 10 9 9 7 -5 9 18 15 8 6
7 8 9 12 14 11 9 12 16 26 -7 10 7 11 13 10 8 7 6 7 6 8 6 5 6 6 8 14 4 5 11 13 10 9 9 6 8 5 -0 2 11 5 8 10 1 5 16
4 5 7 9 9 11 10 10 14 20 6 -11 -3 14 11 9 5 10 6 7 6 7 8 5 6 5 1 2 12 11 8 7 9 9 12 11 7 7 9 9 -1 2 9 17 31 33 15
6 8 10 9 8 8 10 11 9 13 24 1 -1 14 9 7 6 7 10 6 7 7 9 7 6 5 9 9 4 -0 3 4 4 5 8 9 7 7 12 10 10 14 -8 -8 3 19 31
7 10 9 10 12 12 16 14 14 9 14 39 -9 13 11 11 5 3 2 7 6 6 6 7 8 8 2 -5 26 8 4 11 14 12 8 7 7 7 9 6 -16 22 18 13 5 16 11
9 10 13 12 13 16 18 17 15 19 11 18 31 -12 18 6 5 6 8 6 5 9 5 8 -21 50 -18 -2 19 -5 -1 3 2 1 4 9 6 -10 9 13 14 -18 -5 -6 -6 7 -0
8 11 20 16 15 20 14 18 14 15 18 15 23 30 -3 9 3 5 -2 14 4 -1 13 13 11 7 -3 -4 0 2 -10 1 11 11 13 7 0 8 12 5 11 8 10 11 11 9 -3
11 10 19 5 2 -1 6 12 31 27 21 32 27 9 -42 12 -5 4 -0 7 15 9 5 6 3 3 6 8 5 4 8 7 6 10 10 9 -16 -4 43 6 8 5 1 -0 1 13 11
9 9 22 6 9 19 16 27 29 9 3 9 53 33 10 35 -26 11 6 -11 13 10 7 22 30 35 17 4 13 10 14 9 14 16 12 27 28 9 -2 11 28 13 15 12 10 11 4
14 10 11 5 14 7 21 24 27 21 3 29 4 44 1 28 3 -6 -11 1 7 14 5 25 29 2 18 31 -1 1 51 19 12 5 -2 -21 5 18 37 8 -8 3 11 15 15 10 11
13 11 5 3 9 15 28 22 11 19 16 22 10 51 47 29 -25 35 21 4 8 -2 20 10 17 20 15 26 9 9 6 6 10 11 6 9 10 0 10 14 25 18 -7 6 15 4 38
8 14 9 7 12 25 21 -0 23 -25 42 20 35 23 37 35 34 1 22 16 -14 -10 12 22 16 10 9 19 -5 3 5 5 -12 9 18 12 10 14 2 9 0 11 15 16 25 13 11
16 8 7 12 13 14 12 30 -20 8 6 31 16 18 20 40 6 2 6 32 -6 49 -16 8 14 15 0 1 7 4 6 6 3 7 -12 26 32 36 28 12 -16 33 4 -18 6 5 5
5 10 9 11 10 12 34 -14 -19 2 39 38 25 14 56 1 25 39 13 -21 3 6 46 -14 20 9 -1 12 -15 27 15 -3 2 25 -18 3 19 14 -1 12 46 47 22 7 -24 -13 21
24 14 8 14 10 9 22 17 -4 -8 33 46 15 16 11 33 15 33 9 -27 16 -18 -3 19 9 4 5 7 -5 4 7 17 40 22 26 12 23 24 -6 18 23 -14 23 29 20 10 10
15 8 11 17 10 10 25 2 2 2 44 32 19 33 -5 65 11 12 -2 11 5 20 3 14 10 3 4 9 6 7 -4 -2 -1 9 25 13 -4 -7 36 16 -0 20 7 -3 -7 -10 5
16 10 12 17 9 16 22 11 0 18 -7 31 3 33 -41 55 30 8 9 3 -14 -2 5 2 2 2 14 17 17 5 -5 -7 -2 -1 9 11 11 27 -13 -14 14 10 11 14 -33 25 13
10 8 26 15 9 13 27 24 -1 15 0 -10 45 28 33 32 -39 11 9 -4 -4 5 11 -1 -15 13 7 6 4 20 30 19 20 19 6 25 23 19 43 54 24 8 -1 9 21 -23 21
11 11 23 11 9 13 36 13 13 -11 43 45 -8 31 48 1 37 12 0 8 7 -2 11 13 15 12 -4 11 10 -15 11 11 11 17 18 1 19 -30 -39 -31 25 42 16 16 -4 -0 10
14 17 27 10 8 13 34 12 12 -27 47 13 2 44 -4 44 -5 9 0 28 -14 24 5 6 18 -5 -8 5 11 24 7 -7 -13 -3 5 25 -0 8 2 21 -0 -28 -5 41 12 -5 -12
11 17 13 9 10 19 28 16 24 29 35 -1 -5 46 -5 74 -2 8 -4 1 20 -4 -3 8 13 2 17 13 4 -24 18 38 22 13 12 6 -4 7 12 22 32 9 0 -5 22 10 22
10 12 11 11 8 21 23 12 18 36 -3 -10 -26 35 10 23 -11 12 -3 5 -16 3 26 -12 7 6 15 3 15 12 21 -9 -13 -2 14 15 1 7 13 42 79 50 49 16 8 13 21
11 8 20 12 9 17 24 12 16 11 23 14 13 19 21 -1 17 2 23 0 16 7 11 8 11 1 4 7 11 20 23 0 -1 6 2 0 7 44 2 26 12 -14 11 36 22 11 13
14 12 10 20 12 14 24 12 9 7 10 18 -15 7 17 -5 28 1 7 19 6 2 7 8 3 6 5 8 28 18 26 31 38 42 25 19 20 13 4 15 -4 -7 34 27 29 8 18
18 18 9 16 13 14 23 20 9 13 13 6 1 10 23 33 18 30 -5 -5 -9 19 -14 12 10 14 13 10 17 8 6 3 15 14 22 10 12 13 12 13 4 -4 28 9 40 16 53
19 17 11 18 13 13 15 21 14 11 25 1 1 26 -0 26 42 32 16 10 7 8 1 11 7 14 21 20 7 1 4 -7 18 9 14 8 15 9 5 11 10 9 12 7 8 5 21
24 14 12 16 11 13 22 23 13 11 13 26 -5 16 26 5 44 1 -5 -2 6 9 11 0 9 22 18 16 19 12 12 4 12 1 5 17 6 10 17 8 13 10 14 -16 13 19 23
21 20 11 9 14 15 14 27 19 8 11 13 6 3 -3 -4 4 8 21 3 -1 23 6 12 0 12 16 3 18 -2 10 8 10 5 33 10 -8 -2 3 7 11 5 4 -7 4 23 30
Height
3066 3062 3058 3054 3051 3048 3047 3047 3045 3045 3044 3044 3044 3044 3045 3045 3047 3047 3049 3050 3051 3052 3053 3052 3053 3055 3056 3058 3060 3061 3064 3066 3067 3069 3070 3071 3073 3074 3075 3076 3077 3075 3080 3081 3083 3086 3088
3063 3058 3054 3050 3046 3042 3040 3038 3037 3038 3038 3038 3037 3039 3039 3040 3041 3043 3044 3045 3046 3048 3049 3049 3049 3051 3053 3056 3056 3057 3059 3061 3064 3066 3067 3068 3069 3070 3071 3071 3071 3071 3073 3074 3076 3079 3081
3058 3053 3049 3044 3041 3037 3033 3030 3028 3029 3030 3030 3030 3032 3034 3035 3035 3037 3039 3040 3042 3044 3045 3045 3046 3047 3049 3054 3053 3054 3055 3057 3060 3062 3063 3064 3065 3067 3066 3068 3067 3067 3067 3069 3071 3074 3075
3053 3048 3043 3039 3034 3030 3026 3022 3021 3020 3021 3022 3023 3024 3026 3029 3030 3032 3034 3036 3037 3039 3040 3042 3043 3044 3045 3048 3049 3051 3052 3054 3057 3059 3060 3060 3060 3062 3061 3065 3063 3064 3063 3064 3067 3069 3070
3047 3043 3038 3033 3028 3022 3018 3014 3011 3010 3011 3014 3016 3016 3018 3022 3024 3026 3028 3030 3032 3035 3035 3037 3040 3042 3043 3043 3045 3047 3049 3050 3052 3054 3055 3056 3056 3057 3057 3058 3060 3060 3056 3058 3061 3063 3065
3040 3035 3030 3025 3020 3014 3008 3003 3000 2999 2999 3001 3005 3006 3009 3014 3018 3021 3023 3024 3026 3028 3030 3034 3037 3041 3038 3038 3040 3042 3045 3046 3048 3050 3051 3052 3051 3050 3050 3054 3051 3052 3054 3054 3057 3059 3059
3031 3026 3021 3016 3010 3005 2999 2993 2990 2987 2987 2989 2993 2998 3001 3006 3011 3014 3015 3019 3023 3024 3025 3031 3032 3031 3034 3035 3037 3039 3041 3042 3045 3046 3047 3047 3046 3041 3046 3049 3050 3051 3051 3050 3052 3055 3053
3023 3015 3008 3001 2998 2996 2990 2983 2979 2976 2975 2977 2980 2985 2991 2996 3004 3006 3008 3011 3016 3019 3021 3023 3025 3028 3029 3031 3032 3034 3038 3040 3039 3040 3043 3043 3037 3041 3043 3044 3046 3047 3046 3045 3047 3050 3050
3016 3009 3002 2995 2989 2983 2978 2973 2967 2964 2963 2965 2969 2975 2981 2987 2994 2996 3002 3008 3011 3015 3017 3017 3020 3022 3026 3026 3025 3027 3033 3033 3034 3035 3036 3037 3035 3036 3038 3039 3041 3041 3040 3042 3043 3046 3044
3013 3004 2997 2990 2984 2976 2969 2962 2958 2957 2956 2956 2957 2964 2972 2980 2987 2984 2991 3001 3008 3012 3015 3011 3011 3013 3017 3018 3018 3023 3025 3029 3028 3030 3034 3032 3031 3032 3034 3034 3038 3035 3037 3039 3039 3041 3039
3009 3000 2992 2985 2978 2970 2961 2956 2953 2950 2949 2949 2950 2954 2964 2971 2974 2975 2990 2997 3004 3011 3016 3007 3004 3005 3008 3013 3014 3017 3018 3021 3023 3026 3029 3026 3025 3030 3029 3030 3035 3032 3035 3036 3036 3036 3036
3002 2995 2988 2979 2972 2963 2956 2951 2947 2945 2943 2941 2943 2946 2953 2960 2964 2973 2981 2992 3001 3011 3007 3000 2999 3001 3004 3006 3011 3013 3017 3019 3021 3022 3021 3021 3023 3024 3025 3029 3029 3031 3033 3033 3033 3034 3026
2998 2990 2982 2973 2965 2958 2951 2946 2942 2938 2936 2933 2934 2939 2945 2948 2960 2968 2974 2984 2997 2998 2999 2997 2996 2998 3002 3005 3009 3011 3013 3014 3017 3019 3016 3015 3014 3016 3020 3023 3024 3025 3029 3029 3027 3024 3014
2992 2984 2976 2968 2960 2952 2947 2943 2939 2933 2930 2926 2927 2932 2934 2943 2950 2960 2968 2978 2986 2987 2991 2991 2993 2997 3000 3004 3007 3010 3010 3011 3013 3014 3014 3013 3007 3008 3010 3012 3015 3015 3019 3020 3018 3014 3012
2987 2979 2971 2963 2956 2950 2945 2940 2935 2928 2920 2917 2920 2925 2930 2941 2946 2955 2964 2972 2974 2981 2986 2989 2992 2996 2999 3001 3005 3006 3007 3006 3006 3008 3013 3010 3007 3006 3005 3007 3011 3010 3010 3010 3012 3011 3010
2981 2973 2966 2958 2952 2946 2940 2936 2932 2924 2916 2915 2919 2923 2931 2935 2944 2953 2963 2968 2974 2978 2982 2987 2990 2994 2996 2998 3001 3002 3002 2999 3000 3001 3004 3006 3004 3003 3005 3003 3004 3005 3007 3007 3006 3007 3006
2976 2968 2961 2954 2948 2942 2936 2933 2929 2924 2917 2916 2920 2924 2928 2938 2946 2950 2957 2964 2971 2976 2982 2986 2988 2990 2993 2994 2996 2998 2997 2997 2997 2999 3000 3001 3001 2999 2999 2995 2996 3001 3000 3001 3001 3000 2998
2971 2964 2957 2950 2944 2939 2932 2930 2928 2925 2921 2920 2918 2923 2929 2933 2944 2950 2956 2964 2969 2974 2978 2983 2986 2988 2990 2992 2993 2995 2992 2995 2995 2996 2996 2996 2996 2992 2990 2992 2992 2991 2992 2994 2994 2991 2990
2967 2960 2953 2946 2941 2935 2928 2928 2928 2923 2921 2919 2921 2926 2931 2937 2943 2948 2956 2963 2967 2972 2977 2981 2984 2986 2987 2990 2993 2990 2990 2992 2992 2993 2993 2992 2991 2989 2985 2986 2984 2981 2982 2985 2988 2988 2983
2963 2957 2949 2944 2939 2933 2927 2924 2924 2920 2917 2918 2921 2926 2931 2938 2941 2950 2955 2961 2966 2971 2975 2978 2981 2983 2985 2986 2988 2987 2987 2989 2989 2989 2989 2988 2984 2981 2977 2975 2974 2973 2974 2977 2981 2978 2976
2960 2954 2947 2942 2937 2932 2926 2923 2921 2919 2920 2922 2925 2926 2929 2936 2944 2951 2956 2962 2967 2970 2974 2976 2978 2980 2982 2984 2984 2984 2985 2986 2986 2986 2985 2982 2975 2973 2967 2966 2967 2967 2968 2969 2968 2972 2972
2958 2953 2946 2941 2936 2930 2926 2922 2921 2921 2920 2924 2927 2930 2935 2939 2945 2952 2957 2961 2966 2970 2972 2975 2976 2979 2980 2980 2982 2982 2982 2982 2982 2981 2979 2977 2969 2965 2957 2956 2957 2955 2957 2960 2961 2963 2960
2957 2951 2945 2940 2935 2929 2926 2925 2923 2920 2922 2925 2928 2930 2938 2941 2946 2951 2954 2960 2967 2969 2971 2973 2975 2976 2976 2977 2977 2978 2977 2978 2978 2978 2976 2973 2967 2964 2954 2951 2945 2951 2943 2947 2955 2955 2957
2955 2949 2944 2938 2934 2930 2927 2926 2926 2925 2926 2927 2930 2930 2936 2941 2945 2950 2956 2962 2965 2968 2970 2972 2973 2974 2976 2974 2974 2973 2973 2973 2974 2973 2972 2969 2966 2963 2955 2951 2944 2940 2938 2939 2943 2948 2952
2953 2948 2943 2937 2933 2929 2926 2924 2925 2927 2927 2929 2931 2933 2938 2941 2945 2951 2957 2961 2964 2965 2967 2970 2971 2972 2973 2972 2970 2970 2971 2970 2968 2966 2966 2967 2964 2963 2958 2950 2946 2941 2938 2939 2939 2942 2947
2951 2945 2941 2937 2933 2928 2926 2925 2924 2925 2927 2929 2933 2935 2936 2941 2944 2952 2956 2959 2961 2963 2965 2965 2968 2968 2969 2968 2967 2967 2968 2968 2966 2965 2963 2963 2965 2965 2959 2956 2952 2947 2943 2942 2943 2944 2942
2949 2944 2938 2934 2931 2928 2925 2924 2924 2925 2927 2930 2933 2935 2937 2940 2944 2949 2953 2957 2960 2961 2963 2963 2964 2963 2963 2963 2964 2965 2966 2966 2966 2964 2963 2963 2963 2962 2961 2958 2953 2949 2948 2946 2948 2953 2949
2947 2942 2937 2932 2929 2926 2922 2921 2922 2924 2925 2929 2931 2933 2936 2941 2944 2949 2952 2956 2958 2959 2960 2961 2962 2959 2959 2959 2960 2962 2962 2963 2963 2963 2962 2962 2962 2961 2959 2957 2956 2952 2952 2952 2953 2951 2953
2946 2940 2935 2930 2927 2924 2921 2920 2919 2921 2922 2926 2930 2933 2936 2940 2945 2948 2951 2953 2955 2956 2957 2957 2959 2957 2957 2958 2958 2960 2960 2960 2960 2960 2959 2961 2962 2960 2960 2958 2957 2956 2955 2955 2955 2953 2953